Location: Unspecified
(48.2082°N, 0.0000°E)
Time: 17:47:05
(UTC+00:00)

Tiros 1 despin weight - Pass Details

Date: 24 June 2019
Orbit: 594 x 642 km, 48.2° (Epoch: 23 August)

Event Time Altitude Azimuth Distance (km) Brightness Sun altitude
Rises 21:11:26 0° 198° (SSW) 2,857 ? -8.8°
Reaches altitude 10° 21:14:29 10° 176° (S) 1,947 ? -9.1°
Maximum altitude 21:17:10 16° 139° (SE) 1,596 ? -9.4°
Drops below altitude 10° 21:19:51 10° 102° (ESE) 1,939 ? -9.7°
Sets 21:22:53 0° 80° (E) 2,839 ? -10.0°
